Wind_Speed
64 59 54 62 60 58 54 52 48 47 41 33 32 29 30 24 21 22 16 22 17 14 10 11 7 3 13 15 19 22 20 23 29 27 26 27 30 31 30 25 23 17 14 11
66 56 67 64 61 60 55 53 51 50 45 38 33 34 30 28 23 23 21 20 23 17 13 6 2 4 14 14 17 21 20 23 29 29 29 28 32 32 29 24 19 16 13 10
69 71 69 67 64 62 58 55 57 57 53 45 39 36 29 32 24 23 21 21 28 24 15 9 8 7 11 13 16 20 20 23 29 30 29 30 31 28 25 22 18 16 13 10
73 75 70 70 63 63 60 62 62 61 54 47 44 38 30 30 29 24 23 28 20 30 23 15 14 8 12 14 18 21 23 24 28 30 30 29 29 29 26 22 21 17 14 11
74 78 73 70 66 68 67 65 64 65 56 54 46 38 34 30 31 28 24 25 23 25 26 20 14 13 16 14 18 23 23 25 28 30 30 32 29 29 27 24 21 19 15 13
84 84 78 74 77 71 77 70 69 66 58 47 46 41 34 36 41 35 29 26 26 21 17 15 21 18 16 16 18 24 26 24 28 31 33 31 30 30 28 25 22 18 15 12
93 88 84 81 80 76 77 74 71 66 55 40 46 38 37 45 42 40 35 29 29 30 31 21 27 24 21 15 20 22 26 28 31 32 32 32 32 31 27 25 21 18 14 12
99 97 89 86 82 79 76 74 69 63 57 49 49 35 44 49 45 42 37 32 30 33 32 29 26 19 24 22 18 24 25 30 33 31 30 32 33 30 26 22 19 17 15 15
105 98 99 92 86 87 77 72 72 69 65 58 50 45 53 51 46 44 40 34 34 35 34 36 32 27 21 28 27 27 29 32 34 31 31 32 32 28 24 21 19 19 20 17
113 101 104 97 97 96 82 82 78 67 64 57 53 49 53 51 50 47 44 39 37 39 38 34 33 32 28 26 27 28 31 31 34 33 35 34 32 29 28 23 22 22 20 17
116 109 109 104 105 93 85 80 75 75 70 61 58 50 60 56 56 49 45 39 36 40 42 39 37 32 30 29 27 33 33 32 35 38 37 36 35 31 29 27 26 24 21 18
112 110 114 108 101 97 93 88 86 73 60 58 57 58 66 60 57 50 45 38 37 39 39 38 37 36 33 31 29 37 39 36 36 37 38 38 35 33 32 30 28 25 23 22
112 109 112 110 108 104 98 91 80 74 72 62 58 70 67 59 51 48 42 41 39 40 37 38 39 40 38 35 34 38 42 42 41 36 36 39 38 35 33 32 30 28 28 26
110 107 109 112 109 105 94 91 83 78 75 65 60 80 66 56 53 51 47 49 46 46 43 40 41 43 41 37 35 36 41 45 43 40 37 40 42 37 34 34 32 33 33 29
103 104 109 109 108 103 96 90 85 78 68 64 75 72 66 65 63 57 49 53 52 46 46 42 42 44 44 38 36 37 37 44 46 43 42 40 42 41 39 37 35 36 34 32
96 104 107 101 101 97 95 94 88 81 72 71 80 73 73 70 61 57 53 52 53 48 47 46 43 45 45 43 40 39 38 38 46 47 46 43 41 45 44 41 39 37 37 35
93 98 105 102 96 96 98 96 88 86 82 81 82 83 77 68 65 60 56 53 54 51 48 47 45 45 51 49 46 42 41 36 40 47 47 46 48 47 47 44 41 39 38 38
88 96 104 107 101 99 97 95 94 90 83 82 83 82 72 70 66 62 57 52 52 50 49 47 44 44 50 53 51 46 42 41 38 41 46 48 50 50 49 48 44 41 41 40
87 96 105 108 104 99 96 95 97 91 86 86 87 82 74 72 68 62 57 52 52 51 49 47 44 42 50 53 52 49 45 41 36 36 42 47 50 52 51 51 48 45 43 42
92 106 107 106 101 97 96 93 94 91 89 88 90 84 77 72 63 57 55 51 52 51 49 47 46 46 48 55 55 51 47 46 41 37 40 43 47 53 52 49 48 46 45 44
95 105 107 105 100 100 95 94 93 97 92 90 90 84 74 71 61 55 53 51 52 53 51 49 48 45 46 55 60 56 52 50 46 40 38 40 43 48 50 48 46 43 44 44
96 106 108 103 101 98 95 92 93 93 93 91 88 84 75 67 62 57 53 52 55 55 54 52 48 47 50 53 57 58 56 52 50 46 39 37 41 46 49 48 46 46 44 45
93 103 107 99 100 98 95 91 89 91 92 91 88 83 74 67 63 60 58 56 59 57 55 54 52 49 47 49 53 58 57 57 55 51 47 42 39 40 42 43 44 45 47 48
92 100 100 99 99 95 91 89 87 88 91 90 86 84 75 69 65 66 62 61 62 61 58 55 52 49 46 44 46 54 59 57 57 56 53 48 43 40 42 43 47 48 48 49
86 94 96 97 97 94 90 89 85 84 87 89 88 83 77 73 69 69 65 64 64 63 62 58 56 50 47 44 46 48 56 62 61 59 56 53 51 48 46 46 45 44 44 46
82 89 90 89 94 94 91 90 87 84 88 86 87 85 81 77 75 72 71 67 67 65 63 60 58 55 50 49 45 45 46 52 60 61 59 56 54 52 52 52 51 51 51 51
Wind_Direction
236 236 240 237 235 237 238 239 242 245 248 248 252 258 260 261 265 271 252 234 240 258 248 322 14 339 151 158 166 165 171 171 164 161 159 156 155 154 155 153 150 142 130 114
237 234 237 237 238 239 238 239 238 240 243 240 240 246 257 258 261 261 266 229 231 241 245 286 317 158 138 149 167 167 177 178 170 166 166 162 160 163 160 159 155 147 142 134
231 236 235 234 234 237 239 237 237 235 235 234 234 245 244 254 265 262 258 251 245 233 257 240 275 231 169 154 172 176 178 186 179 172 175 173 171 169 168 165 164 157 156 149
230 234 235 237 235 238 239 234 237 240 238 234 233 235 241 251 253 253 257 255 253 231 243 235 273 278 217 158 175 181 186 188 188 177 180 183 181 179 177 175 174 172 168 161
234 232 230 233 234 233 232 234 236 238 236 236 236 236 239 241 245 245 253 257 248 238 241 248 252 241 232 194 179 187 193 190 191 182 186 188 186 186 185 185 184 181 181 177
231 232 230 229 231 229 233 234 236 238 237 235 235 234 241 232 239 243 240 246 245 237 245 243 238 247 230 211 187 197 197 200 198 193 193 190 188 190 190 193 190 190 190 190
231 230 229 227 230 229 233 234 235 238 242 238 236 231 231 233 237 244 237 240 245 245 231 229 238 238 224 230 214 200 202 205 206 204 201 196 196 193 193 198 199 200 202 203
229 229 228 229 228 228 230 234 236 239 239 234 233 226 227 233 234 239 239 236 243 247 230 226 223 231 228 216 216 211 204 209 217 211 207 203 206 197 197 200 203 204 208 206
228 225 228 228 227 228 226 230 232 232 233 229 230 224 230 236 236 235 237 235 235 240 240 234 226 240 229 225 210 217 208 207 220 218 212 212 212 205 205 206 206 204 204 204
222 222 227 225 226 227 224 223 227 230 232 231 232 229 232 235 235 236 238 240 237 236 243 241 235 234 230 232 223 212 219 211 217 222 220 217 217 210 212 210 210 211 208 211
219 216 224 223 226 226 225 228 226 225 223 223 229 226 227 227 235 235 237 240 242 238 240 240 237 229 228 237 222 223 216 209 212 219 224 222 219 214 214 214 215 215 216 220
217 213 220 222 223 224 223 221 222 223 227 229 227 220 225 224 229 231 238 241 241 239 244 248 241 235 228 229 227 223 219 219 217 217 224 226 223 219 217 217 218 217 219 227
218 209 215 217 219 221 221 221 222 219 220 220 219 225 224 227 228 230 234 240 234 234 238 244 245 240 233 225 226 223 218 220 223 216 222 227 225 223 220 219 217 219 220 228
217 208 210 215 216 218 218 220 218 218 219 218 217 226 223 223 224 222 228 232 227 226 230 234 239 241 236 229 227 228 224 221 223 220 221 227 227 224 222 221 220 222 225 230
214 206 205 211 215 216 215 219 218 217 217 218 222 225 222 221 223 223 220 230 234 229 232 231 230 236 234 230 229 233 229 225 227 226 221 225 229 227 225 225 226 230 232 235
211 204 202 207 211 213 213 215 215 214 210 215 223 224 224 223 222 223 224 228 234 232 234 235 226 229 233 231 229 233 232 234 229 230 228 224 230 230 229 228 229 233 236 241
207 200 200 204 207 209 210 210 211 211 207 211 218 222 223 224 223 223 226 227 232 234 235 234 233 225 228 231 232 232 233 234 236 232 234 225 227 232 232 231 233 235 240 245
200 195 197 204 206 208 208 206 209 209 209 212 218 221 220 223 224 223 226 228 234 238 237 235 236 230 226 229 231 235 235 235 237 236 233 229 226 229 233 233 234 236 240 245
192 190 198 201 202 204 206 203 207 207 207 212 218 218 219 222 222 224 227 230 233 234 235 234 235 231 228 228 229 231 231 234 237 234 237 235 231 227 231 234 233 237 241 246
185 189 197 198 200 202 205 203 204 205 206 211 220 218 217 221 221 223 225 226 227 230 230 234 234 229 228 227 228 229 228 230 231 232 231 235 239 231 229 234 237 240 245 249
185 189 195 198 199 204 203 204 202 205 206 210 218 219 217 219 218 219 222 223 222 223 226 229 232 233 231 229 228 228 228 229 231 234 235 233 232 232 231 233 236 240 248 248
187 190 195 195 200 204 203 204 202 204 206 210 217 218 214 219 219 216 219 222 222 222 225 230 231 229 229 230 231 231 231 231 231 232 232 235 235 231 226 228 234 238 242 245
186 190 195 195 201 202 203 204 203 204 205 210 215 217 215 213 216 217 217 221 221 221 225 230 234 234 234 232 231 229 229 231 231 232 231 232 231 233 234 235 238 241 243 247
185 190 194 194 200 202 202 204 204 204 206 210 214 216 213 211 214 216 217 219 221 220 222 227 230 233 233 233 231 230 228 229 231 232 233 233 229 228 229 232 235 237 239 243
188 191 194 195 200 202 201 203 204 203 208 210 213 216 213 211 212 216 216 220 221 222 224 225 228 226 227 227 231 230 229 229 231 232 232 232 230 231 232 235 237 241 243 244
189 191 195 199 202 202 202 203 204 204 208 211 213 214 214 211 212 215 218 216 222 222 224 227 229 231 228 224 228 234 234 233 232 235 236 235 235 234 235 236 238 240 242 244
Height
10884 10897 10905 10895 10903 10909 10918 10924 10930 10932 10937 10942 10942 10944 10944 10952 10953 10950 10954 10958 10958 10960 10961 10961 10958 10957 10955 10960 10964 10966 10969 10973 10975 10976 10979 10983 10986 10989 10992 10995 10997 10998 10999 11000
10874 10889 10871 10887 10896 10900 10909 10914 10920 10923 10929 10934 10936 10936 10942 10945 10948 10947 10950 10955 10956 10959 10959 10960 10959 10960 10956 10960 10966 10967 10971 10975 10976 10978 10981 10984 10988 10991 10993 10995 10998 10999 11000 11001
10858 10857 10864 10873 10883 10891 10898 10902 10901 10907 10917 10925 10930 10934 10939 10937 10941 10943 10947 10951 10953 10958 10957 10959 10960 10961 10959 10959 10966 10969 10972 10976 10977 10978 10982 10985 10989 10991 10993 10995 10997 10999 11002 11002
10839 10836 10854 10861 10875 10879 10887 10880 10886 10894 10910 10919 10922 10929 10933 10934 10935 10939 10943 10946 10949 10954 10957 10957 10960 10961 10960 10958 10965 10970 10973 10976 10979 10979 10983 10986 10988 10991 10993 10995 10998 11001 11003 11004
10828 10820 10832 10846 10859 10860 10861 10869 10875 10879 10900 10908 10919 10926 10928 10930 10928 10934 10937 10940 10943 10949 10954 10954 10957 10960 10959 10958 10962 10968 10972 10976 10979 10980 10982 10985 10989 10991 10994 10996 10998 11001 11003 11005
10794 10797 10817 10828 10829 10846 10837 10857 10862 10871 10888 10906 10915 10923 10924 10923 10919 10929 10933 10935 10936 10939 10946 10951 10954 10957 10957 10957 10961 10966 10971 10976 10979 10979 10982 10986 10988 10991 10994 10996 10998 11001 11004 11005
10767 10781 10796 10804 10813 10827 10829 10841 10852 10864 10881 10906 10904 10918 10918 10911 10917 10922 10929 10931 10932 10935 10941 10948 10951 10951 10954 10956 10957 10964 10969 10974 10978 10978 10983 10987 10988 10991 10994 10996 10999 11002 11004 11005
10744 10754 10775 10789 10798 10808 10817 10828 10847 10861 10875 10889 10891 10912 10904 10901 10910 10917 10923 10928 10930 10932 10938 10943 10946 10947 10950 10953 10955 10961 10966 10971 10976 10978 10982 10986 10988 10992 10994 10996 10999 11001 11003 11004
10712 10741 10743 10763 10780 10783 10805 10821 10829 10841 10857 10871 10884 10895 10887 10894 10903 10909 10916 10922 10924 10926 10930 10936 10940 10942 10946 10950 10952 10956 10962 10967 10973 10977 10981 10984 10988 10992 10994 10996 10998 10999 11001 11002
10681 10717 10719 10743 10748 10754 10787 10792 10805 10833 10849 10865 10874 10885 10885 10888 10892 10899 10906 10912 10916 10919 10922 10927 10933 10937 10941 10946 10949 10953 10959 10962 10967 10973 10977 10981 10985 10989 10991 10993 10995 10997 10999 11000
10650 10686 10691 10711 10721 10754 10774 10792 10803 10810 10828 10850 10861 10876 10868 10879 10879 10890 10896 10902 10908 10912 10914 10919 10924 10931 10935 10940 10942 10947 10953 10957 10960 10967 10973 10976 10979 10983 10987 10989 10991 10993 10996 10998
10622 10662 10660 10689 10713 10733 10747 10761 10772 10802 10830 10843 10852 10857 10848 10866 10872 10881 10886 10893 10899 10904 10909 10912 10918 10925 10929 10933 10935 10940 10946 10951 10954 10961 10967 10970 10974 10977 10980 10983 10987 10990 10993 10993
10593 10632 10643 10665 10681 10700 10725 10746 10775 10792 10800 10823 10837 10830 10839 10856 10868 10875 10878 10881 10889 10895 10902 10905 10910 10918 10924 10928 10930 10935 10939 10945 10950 10955 10961 10966 10969 10971 10975 10978 10982 10986 10988 10989
10566 10607 10623 10640 10663 10685 10717 10736 10757 10771 10786 10810 10826 10799 10830 10847 10856 10864 10867 10868 10878 10885 10893 10898 10903 10908 10917 10921 10925 10929 10934 10938 10943 10948 10954 10959 10962 10966 10970 10974 10978 10980 10982 10985
10543 10585 10603 10623 10649 10676 10704 10724 10744 10761 10785 10802 10794 10804 10821 10829 10838 10852 10864 10857 10864 10880 10886 10891 10895 10901 10908 10914 10919 10922 10927 10932 10935 10941 10946 10950 10956 10960 10963 10967 10971 10973 10977 10980
10527 10562 10590 10616 10636 10666 10688 10701 10723 10745 10765 10778 10772 10794 10801 10811 10830 10842 10851 10856 10854 10868 10875 10882 10887 10891 10898 10906 10912 10916 10920 10924 10928 10932 10937 10943 10949 10952 10956 10960 10964 10968 10970 10973
10510 10547 10577 10599 10618 10639 10655 10681 10710 10724 10735 10748 10756 10762 10782 10805 10818 10831 10840 10848 10849 10857 10865 10873 10878 10883 10889 10896 10903 10908 10912 10917 10920 10925 10931 10934 10939 10944 10949 10953 10957 10961 10965 10967
10503 10535 10558 10569 10599 10615 10642 10669 10688 10705 10730 10740 10746 10756 10779 10794 10809 10821 10831 10839 10844 10848 10856 10863 10868 10873 10879 10886 10894 10900 10908 10910 10913 10918 10920 10924 10928 10934 10940 10944 10950 10954 10957 10960
10491 10525 10535 10550 10575 10606 10624 10649 10668 10698 10719 10726 10723 10746 10770 10780 10796 10811 10823 10833 10837 10840 10843 10853 10859 10865 10870 10877 10884 10891 10898 10901 10905 10909 10911 10915 10919 10924 10930 10935 10941 10946 10950 10953
10481 10497 10517 10544 10568 10595 10614 10639 10664 10689 10704 10709 10708 10735 10756 10772 10796 10810 10819 10827 10830 10830 10834 10840 10848 10856 10861 10866 10872 10881 10887 10890 10895 10898 10900 10905 10910 10915 10920 10926 10934 10939 10942 10945
10473 10492 10508 10532 10562 10583 10605 10627 10652 10665 10690 10695 10699 10726 10752 10764 10788 10801 10810 10818 10821 10822 10826 10830 10836 10844 10851 10856 10862 10869 10875 10880 10885 10891 10893 10897 10901 10907 10913 10919 10925 10930 10932 10935
10466 10484 10503 10528 10553 10575 10598 10619 10638 10660 10677 10685 10693 10716 10743 10763 10777 10789 10799 10805 10809 10812 10817 10822 10827 10833 10838 10844 10851 10859 10865 10870 10875 10880 10886 10889 10893 10898 10903 10909 10916 10919 10922 10923
10469 10486 10499 10530 10546 10568 10588 10610 10630 10652 10667 10677 10687 10709 10735 10753 10766 10778 10786 10793 10799 10802 10808 10812 10816 10823 10828 10833 10840 10847 10854 10858 10863 10869 10875 10880 10885 10890 10896 10901 10906 10909 10912 10914
10467 10483 10504 10527 10542 10562 10586 10605 10622 10642 10656 10671 10682 10701 10722 10741 10753 10762 10771 10779 10787 10792 10797 10802 10807 10812 10818 10822 10829 10836 10842 10846 10851 10857 10863 10870 10876 10881 10885 10889 10892 10895 10898 10901
10473 10486 10502 10521 10535 10555 10576 10594 10616 10633 10648 10661 10676 10689 10710 10725 10737 10749 10758 10764 10773 10780 10788 10794 10799 10804 10809 10813 10817 10823 10829 10835 10840 10846 10854 10860 10866 10872 10876 10879 10883 10887 10889 10892
10472 10486 10506 10523 10537 10552 10572 10586 10602 10621 10634 10650 10665 10679 10695 10710 10722 10734 10743 10750 10758 10768 10775 10783 10789 10794 10801 10806 10809 10813 10819 10826 10832 10837 10843 10849 10855 10860 10865 10869 10872 10874 10877 10880